sat.trackr.live / text

‹ back to catalog

ONEWEB-0341

NORAD 49207 · 2021-083X

PAYLOAD ACTIVE UNKNOWN

§ Identity

Operator
Country
UK
Launch date
2021-09-14
Launch site
TYMSC
Launch vehicle
Mass (kg)
RCS (m²)

Purposes: comms

External: N2YO · Heavens-Above · Gunter

§ Orbital elements

Epoch: 2026-09-09T17:49:17.731776Z

Period
109.20 min
Inclination
87.9181°
Eccentricity
0.0001260
Mean motion
13.18688471 rev/d
Perigee alt
1,188.8 km
Apogee alt
1,190.7 km
Semi-major
7,567.9 km
B*
2.3903e-4
RAAN
318.6575°
Arg perigee
103.6362°
Mean anomaly
256.4911°
Rev number
24,113

§ Raw data

ONEWEB-03411 49207U 21083X   26252.74256634  .00000107  00000+0  23903-3 0  99972 49207  87.9181 318.6575 0001260 103.6362 256.4911 13.18688471241139

JSON: /api/v1/satellites/49207 · /tle

For live sub-satellite position, see the globe view (requires WebGL).

§ Visibility from observer

Set your observer location to see the next 7 days of passes ≥ 10°. The values pass through the URL so the page stays shareable.

No JS? Fill the form by hand. The geolocation button needs JavaScript.